Regional Weather Roundup
Issued by NWS

Home | Current Version | Previous Version | Graphics & Text | Print | Product List | Glossary On
Versions: 1 2 3 4 5 6 7 8 9 10 11 12 13 14 15 16 17 18 19 20 21 22 23 24 25 26 27 28 29 30 31 32 33 34 35 36 37 38 39 40 41 42 43 44 45 46 47 48 49 50
000
ASUS45 KSLC 240510
RWRUT

UTAH REGIONAL WEATHER ROUNDUP
NATIONAL WEATHER SERVICE SALT LAKE CITY UT
1100 PM MDT WED JUL 23 2014

UTZ001>011-023>025-240600-

NORTHERN UTAH

CITY           SKY/WX    TMP DP  RH WIND       PRES   REMARKS
HILL AFB       PTCLDY    86  44  22 SE13      30.00S
LOGAN          NOT AVBL
OGDEN          PTCLDY    86  43  22 SE12      29.95S
PROVO AIRPORT  PTCLDY    86  46  25 SE20      30.04S
SALT LAKE CITY MOCLDY    90  42  18 S20       29.94S
VERNAL         CLOUDY    81  41  24 SW12      30.15R
WENDOVER       CLEAR     90  28  11 NW20G25   29.94S
HEBER CITY     PTCLDY    70  46  43 CALM      30.16R
WEST JORDAN    CLEAR     88  54  31 S15       30.02R

$$

UTZ012>022-026-027-240600-

SOUTHERN UTAH

CITY           SKY/WX    TMP DP  RH WIND       PRES   REMARKS
BRYCE CANYON   MOCLDY    67  40  37 SW5       30.37R
CEDAR CITY     MOCLDY    78  35  21 S5        30.17R
MILFORD        PTCLDY    81  39  22 S9        30.08R
MOAB/CYNLANDS  CLEAR     86  38  18 W13       30.06S
PRICE          CLOUDY    81  42  25 S17G24    30.25R
ST GEORGE      PTCLDY    93  34  12 SE5       29.94R
KANAB            N/A     81  37  21 CALM      30.15R

$$

REGIONAL REPORTS     COLORADO/ARIZONA

CITY           SKY/WX    TMP DP  RH WIND       PRES   REMARKS
CRAIG, CO      MOCLDY    77  42  28 N6        30.27R
GRAND JUNCTION PTCLDY    82  39  21 SE12      30.11R
RIFLE          PTCLDY    78  45  30 E16       30.21S
MONTROSE       MOCLDY    80  42  25 VRB6      30.24S
CORTEZ         CLEAR     79  49  34 S8        30.28R
PAGE, AZ       MOCLDY    91  51  25 SE28G41   30.07R
GRAND CANYON   CLOUDY    77  42  28 S5        30.32R
KINGMAN        CLEAR     86  36  16 S7        30.02R
FLAGSTAFF      CLOUDY    71  49  45 NE3       30.40R

$$

REGIONAL REPORTS    NEVADA/IDAHO/WYOMING

CITY           SKY/WX    TMP DP  RH WIND       PRES   REMARKS
LAS VEGAS, NV  PTCLDY    99  22   6 S9        29.83R HX  92
ELY            CLEAR     70  21  15 S12       30.18R
ELKO           CLEAR     65  30  27 W5        30.09R
POCATELLO, ID  CLEAR     73  49  42 SW16      29.98R
BURLEY         PTCLDY    73  49  42 W8        29.97R
EVANSTON, WY   PTCLDY    69  49  48 E5        30.26S
ROCK SPRINGS   MOCLDY    74  34  23 S6        30.23S

$$


USA.gov is the U.S. government's official web portal to all federal, state and local government web resources and services.